Location: Newark
(44.9861°N, 0.2536°E)
Time: 19:56:14
(UTC+00:00)

HuskySat-1 - Pass Details

Date: 19 July 2020
Orbit: 457 x 471 km, 51.6° (Epoch: 11 August)

Event Time Altitude Azimuth Distance (km) Brightness Sun altitude
Rises 23:35:09 0° 285° (WNW) 2,499 ? -24.0°
Reaches altitude 10° 23:37:31 10° 297° (WNW) 1,621 ? -24.1°
Maximum altitude 23:40:42 28° 358° (N) 912 ? -24.2°
Drops below altitude 10° 23:43:53 10° 59° (ENE) 1,613 ? -24.2°
Sets 23:46:15 0° 71° (ENE) 2,486 ? -24.3°
